Simultaneous Nadir Overpasses (SNOs) Predictions

Prediction of SNOs between NOAA-20 and NOAA-19 Satellite Orbit:

Table of predicted SNOs for the next 14.0 days since TLE Epoch: 8/28/2020
Index Date (NOAA-20) Time (NOAA-20) Lat,Lon (NOAA-20) SZA (NOAA-20 ) Date (NOAA-19) Time (NOAA-19) Lat,Lon (NOAA-19) SZA (NOAA-19 ) Distance(km) Time Diff (sec)
1 09/04/2020 07:32:14 79.08, 35.87 73.65 09/04/2020 07:31:11 79.10, 35.76 73.70 3.30 63
2 09/04/2020 08:22:59 -79.09,-156.94 106.32 09/04/2020 08:22:07 -79.10,-156.95 106.29 0.74 52
3 09/04/2020 09:13:44 79.08, 10.46 73.68 09/04/2020 09:13:11 79.11, 10.40 73.73 3.84 33
4 09/04/2020 10:04:29 -79.10, 177.65 106.28 09/04/2020 10:04:07 -79.12, 177.69 106.26 2.08 22
5 09/04/2020 10:55:15 79.12, -15.20 73.77 09/04/2020 10:55:12 79.10, -15.22 73.75 2.56 3
6 09/04/2020 11:45:59 -79.10, 152.24 106.25 09/04/2020 11:46:07 -79.13, 152.33 106.24 3.66 8
7 09/04/2020 12:36:45 79.13, -40.62 73.80 09/04/2020 12:37:12 79.12, -40.58 73.78 1.48 27
8 09/04/2020 13:27:29 -79.11, 126.83 106.22 09/04/2020 13:28:08 -79.12, 126.70 106.21 2.88 39
9 09/04/2020 14:18:15 79.13, -66.03 73.84 09/04/2020 14:19:12 79.13, -65.94 73.81 1.88 57
10 09/04/2020 15:08:59 -79.11, 101.42 106.18 09/04/2020 15:10:08 -79.13, 101.34 106.19 2.75 69
